McAllen, TX

4:38 PM CST on January 22, 2017 (GMT -0600)
McAllen Miller International

Weather History for KMFE - January, 2012

Change the Weather History Date:

Saturday, January 7, 2012

  Actual Average Record
Temperature  
Mean Temperature 68 °F 60 °F  
Max Temperature 82 °F 70 °F 95 °F (2011)
Min Temperature 53 °F 50 °F 29 °F (1970)
Degree Days  
Heating Degree Days 0 7  
Month to date heating degree days 26 49  
Since 1 July heating degree days 225 286  
Cooling Degree Days 3 2  
Month to date cooling degree days 4 14  
Year to date cooling degree days 4 14  
Growing Degree Days 16 (Base 50)    
Moisture  
Dew Point 57 °F    
Average Humidity 73    
Maximum Humidity 100    
Minimum Humidity 45    
Precipitation  
Precipitation 0.00 in 0.03 in 0.46 in (1986)
Month to date precipitation 0.21 0.22  
Year to date precipitation 0.21 0.22  
Sea Level Pressure  
Sea Level Pressure 29.97 in    
Wind  
Wind Speed 4 mph (SE)    
Max Wind Speed 10 mph    
Max Gust Speed 13 mph    
Visibility 5 miles    
Events Fog    
T = Trace of Precipitation, MM = Missing Value Source: NWS Daily Summary

Daily Weather History Graph

Daily Weather History Graph

Search for Another Location

Airport or City:

Trip Planner

Search our weather history database for the weather conditions in past years. The results will help you decide how hot, cold, wet, or windy it might be!

Date:

Astronomy

Jan. 07, 2012 Rise Set
Actual Time 7:21 AM CST 5:56 PM CST
Civil Twilight 6:56 AM CST 6:21 PM CST
Nautical Twilight 6:28 AM CST 6:50 PM CST
Astronomical Twilight 5:59 AM CST 7:18 PM CST
Moon 4:43 PM CST (1/7) 5:52 AM CST (1/7)
Length of Visible Light 11h 25m
Length of Day
10h 34m
Waxing Gibbous, 97% of the Moon is Illuminated
Jan 7
Waxing Gibbous
Jan 9
Full
Jan 16
Last Quarter
Jan 23
New
Jan 30
First Quarter

Hourly Weather History & Observations

Time (CST) Temp. Heat Index Dew Point Humidity Pressure Visibility Wind Dir Wind Speed Gust Speed Precip Events Conditions
12:53 AM 59.0 °F - 57.0 °F 93% 29.95 in 9.0 mi SSE 4.6 mph - N/A   Clear
1:53 AM 60.1 °F - 57.9 °F 93% 29.94 in 8.0 mi Calm Calm - N/A   Clear
2:47 AM 57.2 °F - 57.2 °F 100% 29.94 in 1.5 mi ESE 4.6 mph - N/A   Clear
2:53 AM 57.0 °F - 55.0 °F 93% 29.94 in 1.5 mi ESE 5.8 mph - N/A   Clear
2:57 AM 57.2 °F - 55.4 °F 94% 29.94 in 3.0 mi SE 4.6 mph - N/A   Clear
3:42 AM 57.2 °F - 55.4 °F 94% 29.94 in 1.8 mi Calm Calm - N/A   Partly Cloudy
3:50 AM 57.2 °F - 55.4 °F 94% 29.95 in 0.8 mi Calm Calm - N/A   Mist
3:53 AM 57.0 °F - 55.9 °F 96% 29.94 in 0.8 mi Calm Calm - N/A   Mist
4:18 AM 55.4 °F - 55.4 °F 100% 29.94 in 0.5 mi SE 3.5 mph - N/A Fog Fog
4:39 AM 53.6 °F - 53.6 °F 100% 29.94 in 0.8 mi SE 3.5 mph - N/A   Mist
4:53 AM 55.0 °F - 54.0 °F 96% 29.94 in 0.8 mi SE 4.6 mph - N/A   Mist
5:23 AM 53.6 °F - 53.6 °F 100% 29.94 in 0.5 mi SE 3.5 mph - N/A Fog Fog
5:53 AM 55.0 °F - 54.0 °F 96% 29.95 in 1.0 mi SE 3.5 mph - N/A   Mist
6:00 AM 55.4 °F - 53.6 °F 94% 29.95 in 0.5 mi SE 4.6 mph - N/A Fog Fog
6:26 AM 53.6 °F - 51.8 °F 94% 29.96 in 0.5 mi SE 5.8 mph - N/A Fog Fog
6:53 AM 53.1 °F - 52.0 °F 96% 29.96 in 0.5 mi SE 5.8 mph - N/A Fog Fog
7:29 AM 53.6 °F - 53.6 °F 100% 29.98 in 0.2 mi Calm Calm - N/A Fog Fog
7:53 AM 54.0 °F - 53.1 °F 97% 29.99 in 0.2 mi Calm Calm - N/A Fog Fog
8:07 AM 53.6 °F - 53.6 °F 100% 30.00 in 0.2 mi Calm Calm - N/A Fog Fog
8:27 AM 55.4 °F - 53.6 °F 94% 30.01 in 0.5 mi Calm Calm - N/A Fog Fog
8:53 AM 55.9 °F - 55.0 °F 97% 30.01 in 0.5 mi South 3.5 mph - N/A Fog Fog
9:19 AM 57.2 °F - 57.2 °F 100% 30.03 in 0.2 mi SSE 4.6 mph - N/A Fog Fog
9:29 AM 57.2 °F - 57.2 °F 100% 30.03 in 0.5 mi SSE 3.5 mph - N/A Fog Fog
9:53 AM 60.1 °F - 59.0 °F 96% 30.04 in 1.8 mi Calm Calm - N/A   Overcast
9:59 AM 60.8 °F - 59.0 °F 94% 30.04 in 3.0 mi Calm Calm - N/A   Overcast
10:22 AM 62.6 °F - 60.8 °F 94% 30.04 in 10.0 mi SSE 3.5 mph - N/A   Scattered Clouds
10:53 AM 68.0 °F - 61.0 °F 78% 30.03 in 10.0 mi SSE 4.6 mph - N/A   Clear
11:53 AM 73.0 °F - 60.1 °F 64% 30.01 in 10.0 mi Calm Calm - N/A   Clear
12:53 PM 75.9 °F - 59.0 °F 56% 29.98 in 10.0 mi Calm Calm - N/A   Clear
1:53 PM 80.1 °F 80.9 °F 60.1 °F 50% 29.95 in 10.0 mi Variable 3.5 mph - N/A   Clear
2:53 PM 80.1 °F 80.7 °F 59.0 °F 48% 29.94 in 10.0 mi Calm Calm - N/A   Clear
3:53 PM 80.6 °F 80.8 °F 57.2 °F 45% 29.94 in 10.0 mi East 4.6 mph - N/A   Clear
4:53 PM 80.1 °F 80.6 °F 57.9 °F 47% 29.94 in 10.0 mi SE 6.9 mph - N/A   Clear
5:53 PM 73.9 °F - 59.0 °F 59% 29.94 in 10.0 mi SE 5.8 mph - N/A   Clear
6:53 PM 71.1 °F - 60.1 °F 68% 29.96 in 10.0 mi ESE 5.8 mph - N/A   Clear
7:53 PM 68.0 °F - 61.0 °F 78% 29.98 in 10.0 mi SE 6.9 mph - N/A   Clear
8:53 PM 68.0 °F - 63.0 °F 84% 29.99 in 10.0 mi SE 9.2 mph - N/A   Clear
9:53 PM 66.9 °F - 62.1 °F 84% 30.00 in 10.0 mi SSE 6.9 mph - N/A   Clear
10:53 PM 64.9 °F - 62.1 °F 90% 30.00 in 10.0 mi SSE 5.8 mph - N/A   Clear
11:24 PM 64.4 °F - 62.6 °F 94% 30.00 in 10.0 mi SE 4.6 mph - N/A   Partly Cloudy
11:37 PM 64.4 °F - 62.6 °F 94% 29.99 in 10.0 mi SSE 5.8 mph - N/A   Mostly Cloudy
11:53 PM 64.9 °F - 63.0 °F 93% 29.98 in 10.0 mi SSE 8.1 mph - N/A   Overcast